Terminal Aerodrome Forecast
Issued by NWS Aberdeen, SD

Home | Current Version | Previous Version | Text Only | Print | Product List | Glossary On
Versions: 1 2 3 4 5 6 7 8 9 10 11 12 13 14 15 16 17 18 19 20 21 22 23 24 25 26 27 28 29 30 31 32 33 34 35 36 37 38 39 40 41 42 43 44 45 46 47 48 49 50
000
FTAK31 PAFA 060642 AAA
TAFABR
TAF AMD
PABR 060642Z 0607/0706 07008KT 6SM -SN BR OVC070
     FM061000 11010KT 4SM BR FEW025 SCT050 OVC100
     FM061400 10008KT P6SM FEW050 SCT100
     FM062200 10004KT P6SM BKN050 OVC100
     FM070200 09010KT 4SM BR SCT007 BKN050=

USA.gov is the U.S. government's official web portal to all federal, state and local government web resources and services.